Flag for Germany Weather past 2 weeks in Pirna, Saxony, Germany

Now
65 °F

Thundershowers. Overcast.


Feels Like: 65 °F
Forecast: 56 / 69 °F
Wind: 3 mph from Southeast

Location: Dresden-Klotzsche

Current Time: Sep 20, 2014 at 6:43:56 PM

Latest Report: Sep 20, 2014 at 3:00 PM


Visibility: 25 mi

Pressure: 29.91 "Hg

Humidity: 88%

Dew point: 62 °F

Location of PirnaLocation

Historic Weather in Pirna — Graph

°F

Pirna temperature yesterday

Maximum temperature yesterday: 71 °F (at 4:00 PM)
Minimum temperature yesterday: 58 °F (at 7:00 AM)
Average temperature yesterday: 63 °F

Past Weeks' High & Low Weather Summary

 TemperatureHumidityPressure
High80 °F (Sep 6, 3:00 PM)100% (Sep 15, 8:00 AM)30.13 "Hg (Sep 15, 8:00 AM)
Low53 °F (Sep 11, 7:00 AM)45% (Sep 17, 3:00 PM)29.86 "Hg (Sep 6, 4:00 PM)
Average63 °F83%30.00 "Hg
* Reported Sep 5 3:00 PM — Sep 20 3:00 PM, Pirna, Weather by CustomWeather, © 2014

Note: Actual official high and low records may vary slightly from our data, if they occured in-between our weather recording intervals... More about our weather records

Advertising

Pirna weather history for previous 24 hours

 ConditionsComfort  
Time TempWeatherWind HumidityBarometerVisibility
3:00 PM
Sep 20
65 °FThundershowers. Overcast.3 mph88%29.91 "Hg25 mi
2:00 PM70 °FThunderstorms. Overcast.2 mph77%29.91 "Hg16 mi
1:00 PM70 °FSprinkles. Partly sunny.3 mph77%29.92 "Hg13 mi
12:00 PM70 °FPartly sunny.3 mph80%29.92 "Hg11 mi
11:00 AM68 °FScattered clouds.2 mph84%29.93 "Hg9 mi
10:00 AM64 °FScattered clouds.2 mph93%29.93 "Hg7 mi
9:00 AM63 °FOvercast.1 mph93%29.93 "Hg6 mi
8:00 AM61 °FOvercast.1 mph98%29.94 "Hg5 mi
7:00 AM60 °FFog.2 mph97%29.93 "Hg4 mi
6:00 AM60 °FFog.2 mph98%29.93 "Hg3 mi
5:00 AM60 °FFog.2 mph97%29.94 "Hg3 mi
4:00 AM61 °FOvercast.2 mph97%29.94 "Hg4 mi
3:00 AM61 °FLight rain. Overcast.2 mph98%29.94 "Hg4 mi
2:00 AM61 °FLight rain. Overcast.2 mph98%29.94 "Hg3 mi
1:00 AM61 °FOvercast.2 mph96%29.94 "Hg6 mi
12:00 AM61 °FFog.2 mph96%29.94 "Hg4 mi
10:00 PM
Sep 19
62 °FOvercast.3 mph93%29.93 "Hg7 mi
9:00 PM63 °FLight rain. Overcast.3 mph93%29.94 "Hg7 mi
8:00 PM63 °FLight rain. Overcast.6 mph93%29.93 "Hg6 mi
7:00 PM64 °FFog.5 mph90%29.92 "Hg4 mi
6:00 PM65 °FThunderstorms. Overcast.3 mph90%29.91 "Hg11 mi
Weather by CustomWeather, © 2014

See weather overviewHow to use our weather pages